Погода в Ефремкасах

Россия / Чувашская Республика     55°42′57″N   46°49′36″E
темп.,
°C
ветер,
м/с
пор.,
м/с
влажн.,
%
обл.,
%
осадки,
мм/ч
давл.,
гПа
погр.,
м
22 января, сб
сб2200:00−9ююв71594100 0.3 1013600
03:00−9ююв61293100 0.6 1013492
06:00−10юв5109490 0.1 1015295
09:00−10юв51095100 0.2 1016309
12:00−8юв5994100 0.3 1016394
15:00−7юв5993100 0.6 1017366
18:00−7юв4896100 0.1 1018290
21:00−5вюв3896100 1.6 1019380
23 января, вс
вс2300:00−4ююв4996100 1.4 1019420
03:00−8ю239898 1.6 102242
06:00−14ююв22100100 0.0 102413
09:00−13ююв22100100 0.1 102721
12:00−7юв1295100 0.0 1029101
15:00−6в1197100 0.1 103025
18:00−8в1199100 0.0 103213
21:00−10вюв2299100 0.0 103313
24 января, пн
пн2400:00−9в2297100 0.1 103516
03:00−8вюв1297100 0.3 103628
06:00−9всв1198100 0.1 103714
09:00−8всв2397100 0.3 103867
12:00−6в2394100 0.2 1038192
15:00−7вюв229753 0.2 103831
18:00−15юв229988 0.0 103810
21:00−18вюв22995 0.0 103810
25 января, вт
вт2500:00−19юв221005 0.0 103714
03:00−20юв2210071 0.0 103622
06:00−21вюв2210078 0.0 103518
09:00−19юв3510051 0.0 103354
12:00−11ююв258962 0.0 1031136
15:00−12юв229619 0.0 102919
18:00−15ююв359896 0.0 102945
21:00−16ююв359789 0.0 102862
26 января, ср
ср2600:00−16ююв369898 0.0 102768
03:00−13ююв379798 0.1 1026131
06:00−11ююв3697100 0.1 1025141
09:00−10ююв4896100 0.1 1025201
12:00−8ююв4695100 0.1 1024231
15:00−7ююв369599 0.2 1024264
18:00−8ююв3897100 0.1 1024175
21:00−10юв3697100 0.1 1023117